Flag for Germany Weather past 2 weeks in Saarbrücken, Saarland, Germany

Now
48 °F

Light rain. Mostly cloudy.


Feels Like: 48 °F
Forecast: 42 / 58 °F
Wind: No wind

Location: Saarbruecken / Ensheim

Current Time: Oct 25, 2014 at 5:59:20 AM

Latest Report: Oct 25, 2014 at 5:20 AM


Visibility: N/A

Pressure: 30.09 "Hg

Humidity: 87%

Dew point: 45 °F

Location of SaarbrückenLocation

Historic Weather in Saarbrücken — Graph

°F

Saarbrücken temperature yesterday

Maximum temperature yesterday: 57 °F (at 2:50 PM)
Minimum temperature yesterday: 37 °F (at 7:20 AM)
Average temperature yesterday: 47 °F

Past Weeks' High & Low Weather Summary

 TemperatureHumidityPressure
High72 °F (Oct 18, 2:50 PM)100% (Oct 10, 9:20 AM)30.27 "Hg (Oct 10, 9:20 AM)
Low37 °F (Oct 24, 7:20 AM)53% (Oct 18, 3:20 PM)29.65 "Hg (Oct 21, 4:50 PM)
Average55 °F87%29.98 "Hg
* Reported Oct 10 4:20 AM — Oct 25 4:50 AM, Saarbrücken, Weather by CustomWeather, © 2014

Note: Actual official high and low records may vary slightly from our data, if they occured in-between our weather recording intervals... More about our weather records

Advertising

Saarbrücken weather history for previous 24 hours

 ConditionsComfort  
Time TempWeatherWind HumidityBarometerVisibility
4:50 AM
Oct 25
48 °FLight rain. Mostly cloudy.No wind87%30.09 "HgN/A
4:20 AM48 °FPassing clouds.1 mph87%30.09 "HgN/A
3:50 AM46 °FClear.1 mph93%30.09 "Hg10 mi
3:20 AM48 °FClear.1 mph87%30.09 "Hg10 mi
2:50 AM48 °FClear.No wind87%30.09 "Hg10 mi
2:20 AM46 °FClear.No wind87%30.09 "Hg10 mi
1:50 AM46 °FLight rain. Clear.2 mph87%30.09 "HgN/A
1:20 AM46 °FClear.2 mph87%30.09 "Hg10 mi
12:50 AM48 °FClear.3 mph82%30.09 "Hg10 mi
12:20 AM48 °FClear.2 mph82%30.09 "Hg10 mi
11:50 PM
Oct 24
48 °FClear.3 mph82%30.09 "Hg10 mi
11:20 PM48 °FClear.3 mph82%30.09 "Hg10 mi
10:50 PM48 °FClear.5 mph82%30.09 "Hg10 mi
10:20 PM48 °FClear.5 mph82%30.09 "Hg10 mi
9:50 PM48 °FClear.3 mph82%30.09 "Hg10 mi
9:20 PM48 °FClear.No wind82%30.09 "Hg10 mi
8:50 PM48 °FClear.5 mph82%30.09 "Hg10 mi
8:20 PM50 °FClear.3 mph76%30.09 "Hg10 mi
7:50 PM52 °FPartly cloudy.5 mph72%30.09 "HgN/A
7:20 PM52 °FSunny.5 mph72%30.09 "Hg10 mi
6:50 PM52 °FSunny.5 mph67%30.09 "Hg10 mi
6:20 PM52 °FSunny.5 mph72%30.09 "Hg10 mi
5:50 PM54 °FSunny.5 mph67%30.09 "Hg10 mi
5:20 PM54 °FSunny.5 mph67%30.09 "Hg10 mi
4:50 PM55 °FSunny.5 mph59%30.09 "Hg10 mi
4:20 PM55 °FPassing clouds.6 mph59%30.09 "HgN/A
3:50 PM57 °FSunny.7 mph55%30.12 "Hg10 mi
3:20 PM57 °FPassing clouds.7 mph55%30.12 "HgN/A
2:50 PM57 °FPartly sunny.8 mph55%30.12 "HgN/A
2:20 PM55 °FScattered clouds.8 mph59%30.12 "HgN/A
1:50 PM55 °FScattered clouds.8 mph63%30.15 "HgN/A
1:20 PM55 °FScattered clouds.6 mph63%30.15 "HgN/A
12:50 PM54 °FScattered clouds.6 mph63%30.18 "HgN/A
12:20 PM52 °FSunny.6 mph72%30.18 "Hg10 mi
11:50 AM52 °FSunny.2 mph72%30.18 "Hg10 mi
11:20 AM50 °FSunny.2 mph76%30.18 "Hg10 mi
10:50 AM48 °FPassing clouds.3 mph82%30.18 "HgN/A
10:20 AM46 °FPassing clouds.3 mph87%30.18 "HgN/A
9:50 AM43 °FClear.3 mph100%30.18 "Hg6 mi
9:20 AM41 °FFog.2 mph100%30.18 "Hg5 mi
8:50 AM39 °FFog.3 mph100%30.18 "Hg5 mi
8:20 AM37 °FFog.3 mph100%30.18 "Hg5 mi
7:50 AM39 °FFog.3 mph93%30.18 "HgN/A
7:20 AM37 °FFog.3 mph100%30.18 "Hg5 mi
6:50 AM39 °FFog.3 mph93%30.18 "Hg5 mi
6:20 AM39 °FFog.3 mph100%30.18 "Hg5 mi
5:50 AM39 °FFog.3 mph100%30.18 "Hg6 mi
5:20 AM39 °FFog.5 mph100%30.18 "Hg5 mi
Weather by CustomWeather, © 2014

See weather overviewHow to use our weather pages